Location: Asheville, NC
(35.6000°N, 82.5500°W)
Time: 23:05:26
(UTC-04:00)

Tiangong 2 - Pass Details

Date: 16 October 2017
Orbit: 388 x 391 km, 42.8° (Epoch: 20 October)

Event Time Altitude Azimuth Distance (km) Brightness Sun altitude
Exits shadow 06:13:06 22° 346° (NNW) 918 2.8 -17.9°
Maximum altitude 06:13:51 24° 8° (N) 863 2.9 -17.8°
Drops below altitude 10° 06:16:31 10° 65° (ENE) 1,416 4.9 -17.3°
Sets 06:18:51 0° 80° (E) 2,271 6.7 -16.8°
